ONEWEB-0129 (47275 NORAD) Tracking and Keplerian Element Data

This shows tracking and keplerian element data for the satellite.

Feedback or suggestion? Click here.




ElementValue
Catalog47275
NameONEWEB-0129
Epoch Orbit172
Epoch Day101.91668981
Epoch Year2021
RAAN6.6915
Inclination87.9617
Eccentricity0.0001648
Argument of Perigee87.6188
Mean Anonmoly341.8905
Mean Motion13.28600768
Decay Rate-0.00036128
L11 47275U 20100T 21101.91668981 -.00036128 00000-0 -79399-1 0 9991
L22 47275 87.9617 6.6915 0001648 87.6188 341.8905 13.28600768 1720

Live tracking and technical data element details for ONEWEB-0129 (NORAD 47275). ONEWEB-0129 can be tracked NOW for your location showing map with azimuth and elevation plus other details from your city location.

Track the satellite on the map from your city or location and see movement details for azimuth, elevation, latitude, longitude, range, height, and movement on the map or in text.







IsCatalogInMostPopularTable: catalog: 47275, numindb: 32
Update: records affected: 1



GetName: 47275 ONEWEB-0129

Hit Count: updated at: Tue, 13 Apr 2021 04:21:07 GMT